Location: Amberg
(48.0613°N, 10.6820°E)
Time: 21:04:58
(UTC+00:00)

Cosmos 2344 - Pass Details

Date: 18 November 2025
Orbit: 1197 x 3045 km, 63.3° (Epoch: 10 December)

Event Time Altitude Azimuth Distance (km) Brightness Sun altitude
Rises 18:23:06 0° 318° (NW) 4,219 6.9 -27.7°
Reaches altitude 10° 18:25:36 10° 318° (NW) 3,338 6.3 -28.1°
Maximum altitude 18:33:36 85° 232° (SW) 1,572 3.9 -29.4°
Enters shadow 18:38:35 36° 147° (SSE) 2,568 4.8 -30.2°
